This is the latest recevied weather packets stored in our database for station/object WB5CFT. If no packets are shown the sender has not sent any weather packets the latest 1 day(s).
| Time | Temp. | Humidity | Pressure | Rain* | Wind** | Luminosity | Snow |
|---|---|---|---|---|---|---|---|
| 1778021003 | 27.22° C | 30% | 1009.9 hPa | 0 mm | 1.34 m/s, 246° | 243 W/m² | - |
| 1778020700 | 27.22° C | 28% | 1010.1 hPa | 0 mm | 3.58 m/s, 259° | 546 W/m² | - |
| 1778020397 | 27.22° C | 29% | 1010.1 hPa | 0 mm | 4.92 m/s, 247° | 569 W/m² | - |
| 1778020092 | 27.22° C | 30% | 1009.9 hPa | 0 mm | 0.89 m/s, 274° | 513 W/m² | - |
| 1778019789 | 27.22° C | 30% | 1010.1 hPa | 0 mm | 2.68 m/s, 282° | 253 W/m² | - |
| 1778019486 | 27.78° C | 29% | 1009.9 hPa | 0 mm | 3.13 m/s, 307° | 520 W/m² | - |
| 1778019183 | 26.67° C | 30% | 1009.8 hPa | 0 mm | 0 m/s | 538 W/m² | - |
| 1778018880 | 26.67° C | 31% | 1010.2 hPa | 0 mm | 1.79 m/s, 267° | 182 W/m² | - |
| 1778018577 | 26.67° C | 31% | 1010.1 hPa | 0 mm | 0.89 m/s, 232° | 189 W/m² | - |
| 1778018275 | 26.67° C | 31% | 1010.2 hPa | 0 mm | 1.79 m/s, 282° | 228 W/m² | - |
| 1778017972 | 27.22° C | 30% | 1010.3 hPa | 0 mm | 3.58 m/s, 261° | 225 W/m² | - |
| 1778017670 | 27.22° C | 30% | 1010.2 hPa | 0 mm | 1.34 m/s, 255° | 284 W/m² | - |
| 1778017367 | 27.22° C | 30% | 1010.4 hPa | 0 mm | 1.34 m/s, 241° | 808 W/m² | - |
| 1778017064 | 27.22° C | 30% | 1010.1 hPa | 0 mm | 0.89 m/s, 263° | 438 W/m² | - |
| 1778016762 | 27.22° C | 30% | 1010.1 hPa | 0 mm | 2.68 m/s, 206° | 262 W/m² | - |
| 1778016457 | 27.22° C | 30% | 1010.2 hPa | 0 mm | 2.24 m/s, 229° | 768 W/m² | - |
| 1778016155 | 26.67° C | 30% | 1010.2 hPa | 0 mm | 4.47 m/s, 262° | 929 W/m² | - |
| 1778015852 | 26.67° C | 30% | 1010.3 hPa | 0 mm | 4.02 m/s, 306° | 348 W/m² | - |
| 1778015549 | 26.11° C | 31% | 1010.2 hPa | 0 mm | 2.24 m/s, 267° | 285 W/m² | - |
| 1778015245 | 26.11° C | 31% | 1010.4 hPa | 0 mm | 2.68 m/s, 251° | 234 W/m² | - |
| 1778014942 | 26.11° C | 31% | 1010.5 hPa | 0 mm | 2.24 m/s, 271° | 245 W/m² | - |
| 1778014640 | 25.56° C | 31% | 1010.9 hPa | 0 mm | 2.68 m/s, 272° | 180 W/m² | - |
| 1778014338 | 25.56° C | 30% | 1010.7 hPa | 0 mm | 4.47 m/s, 236° | 173 W/m² | - |
| 1778014034 | 25.56° C | 31% | 1010.9 hPa | 0 mm | 0 m/s | 159 W/m² | - |
| 1778013732 | 25.56° C | 31% | 1011.2 hPa | 0 mm | 2.68 m/s, 262° | 156 W/m² | - |
* Rain latest hour (hover to see other rain measurements)
** Current wind speed in m/s (hover to see current wind gust speed)